| time (UTC) | temp C | wind direction | speed KPH | gust KPH | rain 1hr cm | rain 24hr cm | rain mn cm | humidity % | barometer mb |
| 20260508153547 | 15 | 321 | 1.6 | 6.4 | 0.00 | 0.00 | 0.00 | 48 | 1020.8 |
| 20260508152546 | 14 | 16 | 1.6 | 6.4 | 0.00 | 0.00 | 0.00 | 55 | 1020.9 |
| 20260508151545 | 14 | 355 | 1.6 | 6.4 | 0.00 | 0.00 | 0.00 | 56 | 1021.0 |
| 20260508150543 | 13 | 34 | 1.6 | 6.4 | 0.00 | 0.00 | 0.00 | 61 | 1021.2 |
| 20260508145543 | 13 | 62 | 1.6 | 4.8 | 0.00 | 0.00 | 0.00 | 62 | 1021.3 |
| 20260508144511 | 13 | 39 | 1.6 | 4.8 | 0.00 | 0.00 | 0.00 | 62 | 1021.2 |
| 20260508143509 | 12 | 58 | 1.6 | 4.8 | 0.00 | 0.00 | 0.00 | 64 | 1021.1 |
| 20260508142508 | 12 | 327 | 3.2 | 4.8 | 0.00 | 0.00 | 0.00 | 67 | 1020.7 |
| 20260508141507 | 11 | 272 | 1.6 | 6.4 | 0.00 | 0.00 | 0.00 | 65 | 1020.7 |
| 20260508140506 | 11 | 272 | 0.0 | 6.4 | 0.00 | 0.00 | 0.00 | 65 | 1020.6 |
| 20260508135434 | 10 | 261 | 3.2 | 4.8 | 0.00 | 0.00 | 0.00 | 70 | 1020.5 |
| 20260508134434 | 9 | 148 | 0.0 | 4.8 | 0.00 | 0.00 | 0.00 | 71 | 1020.4 |
| 20260508133432 | 8 | 149 | 1.6 | 4.8 | 0.00 | 0.00 | 0.00 | 71 | 1020.2 |
| 20260508132401 | 7 | 154 | 1.6 | 3.2 | 0.00 | 0.00 | 0.00 | 73 | 1019.7 |
| 20260508131400 | 7 | 153 | 1.6 | 3.2 | 0.00 | 0.00 | 0.00 | 74 | 1019.7 |
| 20260508130358 | 6 | 151 | 0.0 | 4.8 | 0.00 | 0.00 | 0.00 | 74 | 1019.6 |
| 20260508125357 | 6 | 152 | 0.0 | 4.8 | 0.00 | 0.00 | 0.00 | 74 | 1019.5 |
| 20260508124356 | 6 | 151 | 0.0 | 1.6 | 0.00 | 0.00 | 0.00 | 74 | 1019.5 |
| 20260508123355 | 6 | 151 | 1.6 | 1.6 | 0.00 | 0.00 | 0.00 | 75 | 1019.6 |
| 20260508122354 | 6 | 150 | 0.0 | 1.6 | 0.00 | 0.00 | 0.00 | 74 | 1019.7 |
| 20260508121352 | 6 | 151 | 0.0 | 3.2 | 0.00 | 0.00 | 0.00 | 73 | 1019.7 |
| 20260508120351 | 6 | 151 | 1.6 | 4.8 | 0.00 | 0.00 | 0.00 | 74 | 1019.8 |
| 20260508115350 | 7 | 151 | 1.6 | 8.0 | 0.00 | 0.00 | 0.00 | 75 | 1019.5 |
| 20260508114350 | 7 | 150 | 3.2 | 9.7 | 0.00 | 0.00 | 0.00 | 75 | 1020.0 |
| 20260508113349 | 7 | 149 | 3.2 | 8.0 | 0.00 | 0.00 | 0.00 | 75 | 1019.7 |
| 20260508112348 | 7 | 156 | 1.6 | 8.0 | 0.00 | 0.00 | 0.00 | 75 | 1019.8 |
| 20260508111316 | 7 | 151 | 3.2 | 8.0 | 0.00 | 0.00 | 0.00 | 75 | 1019.8 |
| 20260508110244 | 8 | 148 | 3.2 | 8.0 | 0.00 | 0.00 | 0.00 | 77 | 1019.9 |
| 20260508105243 | 8 | 155 | 3.2 | 8.0 | 0.00 | 0.00 | 0.00 | 79 | 1019.8 |
| 20260508104242 | 8 | 156 | 3.2 | 8.0 | 0.00 | 0.00 | 0.00 | 79 | 1019.9 |
| 20260508103240 | 8 | 155 | 1.6 | 8.0 | 0.00 | 0.00 | 0.00 | 79 | 1019.8 |
| 20260508102208 | 8 | 148 | 3.2 | 8.0 | 0.00 | 0.00 | 0.00 | 79 | 1019.9 |
| 20260508101207 | 8 | 154 | 3.2 | 8.0 | 0.00 | 0.00 | 0.00 | 79 | 1019.6 |
| 20260508100206 | 8 | 151 | 1.6 | 4.8 | 0.00 | 0.00 | 0.00 | 78 | 1019.5 |
| 20260508095205 | 8 | 154 | 0.0 | 0.0 | 0.00 | 0.00 | 0.00 | 78 | 1019.6 |
| 20260508094204 | 8 | 155 | 0.0 | 0.0 | 0.00 | 0.00 | 0.00 | 78 | 1020.0 |
| 20260508093132 | 8 | 154 | 0.0 | 0.0 | 0.00 | 0.00 | 0.00 | 77 | 1019.7 |
| 20260508092100 | 8 | 155 | 0.0 | 0.0 | 0.00 | 0.00 | 0.00 | 76 | 1019.7 |
| 20260508091059 | 9 | 153 | 0.0 | 0.0 | 0.00 | 0.00 | 0.00 | 76 | 1019.7 |
| 20260508090058 | 9 | 155 | 0.0 | 0.0 | 0.00 | 0.00 | 0.00 | 75 | 1019.8 |
| 20260508085057 | 9 | 154 | 0.0 | 0.0 | 0.00 | 0.00 | 0.00 | 75 | 1019.8 |
| 20260508084057 | 9 | 154 | 0.0 | 0.0 | 0.00 | 0.00 | 0.00 | 75 | 1019.8 |
| 20260508083056 | 9 | 154 | 0.0 | 0.0 | 0.00 | 0.00 | 0.00 | 75 | 1019.8 |
| 20260508082055 | 9 | 155 | 0.0 | 0.0 | 0.00 | 0.00 | 0.00 | 75 | 1019.8 |
| 20260508081054 | 10 | 154 | 0.0 | 0.0 | 0.00 | 0.00 | 0.00 | 75 | 1019.7 |
| 20260508075951 | 10 | 151 | 0.0 | 0.0 | 0.00 | 0.00 | 0.00 | 75 | 1019.8 |
| 20260508074950 | 10 | 151 | 0.0 | 0.0 | 0.00 | 0.00 | 0.00 | 75 | 1019.9 |
| 20260508073949 | 10 | 150 | 0.0 | 0.0 | 0.00 | 0.00 | 0.00 | 74 | 1019.8 |
| 20260508072948 | 10 | 151 | 0.0 | 0.0 | 0.00 | 0.00 | 0.00 | 74 | 1019.9 |
| 20260508071947 | 10 | 151 | 0.0 | 1.6 | 0.00 | 0.00 | 0.00 | 73 | 1019.9 |
| 20260508070914 | 10 | 151 | 0.0 | 1.6 | 0.00 | 0.00 | 0.00 | 73 | 1019.8 |
| 20260508065914 | 11 | 152 | 0.0 | 1.6 | 0.00 | 0.00 | 0.00 | 73 | 1019.4 |
| 20260508064913 | 11 | 151 | 0.0 | 8.0 | 0.00 | 0.00 | 0.00 | 73 | 1019.5 |
| 20260508063912 | 11 | 154 | 3.2 | 4.8 | 0.00 | 0.00 | 0.00 | 73 | 1019.4 |
| 20260508062911 | 11 | 156 | 3.2 | 3.2 | 0.00 | 0.00 | 0.00 | 73 | 1019.8 |
| 20260508061910 | 11 | 156 | 1.6 | 4.8 | 0.00 | 0.00 | 0.00 | 73 | 1019.5 |
| 20260508060909 | 11 | 160 | 3.2 | 6.4 | 0.00 | 0.00 | 0.00 | 73 | 1019.3 |
| 20260508055908 | 11 | 176 | 0.0 | 0.0 | 0.00 | 0.00 | 0.00 | 73 | 1019.3 |
| 20260508054907 | 11 | 179 | 0.0 | 0.0 | 0.00 | 0.00 | 0.00 | 73 | 1019.3 |
| 20260508053906 | 11 | 180 | 0.0 | 0.0 | 0.00 | 0.00 | 0.00 | 72 | 1019.6 |
| 20260508052834 | 11 | 169 | 0.0 | 1.6 | 0.00 | 0.00 | 0.00 | 71 | 1019.3 |
| 20260508051833 | 11 | 169 | 0.0 | 3.2 | 0.00 | 0.00 | 0.00 | 70 | 1019.5 |
| 20260508050831 | 12 | 169 | 0.0 | 6.4 | 0.00 | 0.00 | 0.00 | 71 | 1019.5 |
| 20260508045830 | 12 | 159 | 1.6 | 4.8 | 0.00 | 0.00 | 0.00 | 70 | 1019.1 |
| 20260508044829 | 12 | 158 | 0.0 | 4.8 | 0.00 | 0.00 | 0.00 | 70 | 1019.1 |
| 20260508043828 | 12 | 157 | 1.6 | 4.8 | 0.00 | 0.00 | 0.00 | 70 | 1019.2 |
| 20260508042827 | 12 | 157 | 1.6 | 4.8 | 0.00 | 0.00 | 0.00 | 69 | 1019.2 |
| 20260508041826 | 12 | 149 | 0.0 | 3.2 | 0.00 | 0.00 | 0.00 | 68 | 1019.1 |
| 20260508040826 | 13 | 149 | 1.6 | 4.8 | 0.00 | 0.00 | 0.00 | 67 | 1019.1 |
| 20260508035824 | 13 | 154 | 1.6 | 4.8 | 0.00 | 0.00 | 0.00 | 66 | 1019.2 |
| 20260508034823 | 13 | 156 | 1.6 | 4.8 | 0.00 | 0.00 | 0.00 | 65 | 1018.9 |
| 20260508033751 | 13 | 156 | 3.2 | 4.8 | 0.00 | 0.00 | 0.00 | 63 | 1018.9 |
| 20260508032749 | 15 | 148 | 0.0 | 3.2 | 0.00 | 0.00 | 0.00 | 61 | 1019.0 |
| 20260508031748 | 16 | 129 | 1.6 | 3.2 | 0.00 | 0.00 | 0.00 | 57 | 1018.9 |
| 20260508030747 | 16 | 24 | 0.0 | 4.8 | 0.00 | 0.00 | 0.00 | 54 | 1019.1 |
| 20260508025746 | 17 | 25 | 0.0 | 4.8 | 0.00 | 0.00 | 0.00 | 52 | 1019.2 |
| 20260508024713 | 17 | 24 | 3.2 | 6.4 | 0.00 | 0.00 | 0.00 | 50 | 1019.2 |
| 20260508023712 | 17 | 23 | 1.6 | 6.4 | 0.00 | 0.00 | 0.00 | 48 | 1019.2 |
| 20260508022639 | 18 | 19 | 1.6 | 6.4 | 0.00 | 0.00 | 0.00 | 47 | 1018.9 |
| 20260508021639 | 18 | 18 | 1.6 | 6.4 | 0.00 | 0.00 | 0.00 | 46 | 1018.9 |
| 20260508020637 | 18 | 21 | 1.6 | 4.8 | 0.00 | 0.00 | 0.00 | 46 | 1018.8 |
| 20260508015636 | 18 | 12 | 3.2 | 4.8 | 0.00 | 0.00 | 0.00 | 44 | 1018.8 |
| 20260508014635 | 18 | 25 | 1.6 | 6.4 | 0.00 | 0.00 | 0.00 | 42 | 1018.8 |
| 20260508013532 | 19 | 8 | 1.6 | 6.4 | 0.00 | 0.00 | 0.00 | 41 | 1018.8 |
| 20260508012531 | 19 | 11 | 3.2 | 12.9 | 0.00 | 0.00 | 0.00 | 41 | 1018.7 |
| 20260508011529 | 20 | 9 | 3.2 | 12.9 | 0.00 | 0.00 | 0.00 | 43 | 1018.6 |
| 20260508010529 | 20 | 8 | 3.2 | 6.4 | 0.00 | 0.00 | 0.00 | 44 | 1018.4 |
| 20260508005528 | 20 | 20 | 3.2 | 6.4 | 0.00 | 0.00 | 0.00 | 46 | 1018.3 |
| 20260508004527 | 20 | 346 | 1.6 | 6.4 | 0.00 | 0.00 | 0.00 | 46 | 1018.3 |
| 20260508003526 | 20 | 20 | 1.6 | 8.0 | 0.00 | 0.00 | 0.00 | 47 | 1018.3 |
| 20260508002525 | 21 | 7 | 3.2 | 8.0 | 0.00 | 0.00 | 0.00 | 44 | 1018.3 |
| 20260508001524 | 20 | 334 | 1.6 | 9.7 | 0.00 | 0.00 | 0.00 | 44 | 1017.9 |
| 20260508000523 | 20 | 19 | 3.2 | 11.3 | 0.00 | 0.00 | 0.00 | 45 | 1017.9 |
| 20260507235522 | 20 | 7 | 1.6 | 6.4 | 0.00 | 0.00 | 0.00 | 46 | 1017.9 |
| 20260507234521 | 21 | 3 | 1.6 | 6.4 | 0.00 | 0.00 | 0.00 | 41 | 1018.0 |
| 20260507233448 | 21 | 328 | 1.6 | 8.0 | 0.00 | 0.00 | 0.00 | 38 | 1018.1 |
| 20260507232448 | 21 | 352 | 1.6 | 16.1 | 0.00 | 0.00 | 0.00 | 38 | 1018.2 |
| 20260507231446 | 21 | 287 | 4.8 | 16.1 | 0.00 | 0.00 | 0.00 | 32 | 1018.2 |
| 20260507230445 | 21 | 264 | 6.4 | 14.5 | 0.00 | 0.00 | 0.00 | 31 | 1018.3 |
| 20260507225443 | 21 | 282 | 4.8 | 14.5 | 0.00 | 0.00 | 0.00 | 33 | 1018.7 |
| 20260507224442 | 21 | 287 | 4.8 | 17.7 | 0.00 | 0.00 | 0.00 | 33 | 1018.8 |
| 20260507223441 | 21 | 287 | 6.4 | 17.7 | 0.00 | 0.00 | 0.00 | 35 | 1018.9 |
| 20260507222439 | 21 | 275 | 1.6 | 14.5 | 0.00 | 0.00 | 0.00 | 34 | 1019.1 |
| 20260507221439 | 21 | 287 | 4.8 | 14.5 | 0.00 | 0.00 | 0.00 | 35 | 1019.1 |
| 20260507220437 | 21 | 289 | 3.2 | 14.5 | 0.00 | 0.00 | 0.00 | 34 | 1019.1 |
| 20260507215436 | 21 | 267 | 3.2 | 14.5 | 0.00 | 0.00 | 0.00 | 34 | 1019.5 |
| 20260507214435 | 21 | 295 | 1.6 | 14.5 | 0.00 | 0.00 | 0.00 | 34 | 1019.6 |
| 20260507213434 | 21 | 292 | 3.2 | 14.5 | 0.00 | 0.00 | 0.00 | 34 | 1019.7 |
| 20260507212432 | 21 | 300 | 1.6 | 11.3 | 0.00 | 0.00 | 0.00 | 38 | 1019.6 |
| 20260507211400 | 21 | 294 | 1.6 | 16.1 | 0.00 | 0.00 | 0.00 | 34 | 1020.0 |
| 20260507210359 | 21 | 256 | 3.2 | 16.1 | 0.00 | 0.00 | 0.00 | 36 | 1020.1 |
| 20260507205358 | 21 | 307 | 3.2 | 17.7 | 0.00 | 0.00 | 0.00 | 37 | 1020.2 |
| 20260507204356 | 21 | 299 | 1.6 | 14.5 | 0.00 | 0.00 | 0.00 | 39 | 1020.4 |
| 20260507203253 | 21 | 272 | 4.8 | 16.1 | 0.00 | 0.00 | 0.00 | 43 | 1020.5 |
| 20260507202252 | 20 | 274 | 4.8 | 16.1 | 0.00 | 0.00 | 0.00 | 38 | 1020.8 |
| 20260507201251 | 20 | 293 | 4.8 | 14.5 | 0.00 | 0.00 | 0.00 | 43 | 1020.9 |
| 20260507200148 | 20 | 287 | 4.8 | 14.5 | 0.00 | 0.00 | 0.00 | 40 | 1020.9 |
| 20260507195147 | 21 | 295 | 3.2 | 12.9 | 0.00 | 0.00 | 0.00 | 38 | 1020.9 |
| 20260507194115 | 20 | 280 | 3.2 | 11.3 | 0.00 | 0.00 | 0.00 | 43 | 1020.8 |
| 20260507193114 | 20 | 300 | 3.2 | 12.9 | 0.00 | 0.00 | 0.00 | 41 | 1020.8 |
| 20260507192113 | 20 | 278 | 6.4 | 12.9 | 0.00 | 0.00 | 0.00 | 41 | 1020.8 |
| 20260507191040 | 20 | 282 | 3.2 | 12.9 | 0.00 | 0.00 | 0.00 | 42 | 1020.8 |
| 20260507190039 | 19 | 266 | 4.8 | 12.9 | 0.00 | 0.00 | 0.00 | 43 | 1020.7 |
| 20260507185038 | 19 | 282 | 4.8 | 12.9 | 0.00 | 0.00 | 0.00 | 44 | 1020.8 |
| 20260507184037 | 18 | 265 | 4.8 | 12.9 | 0.00 | 0.00 | 0.00 | 47 | 1020.8 |
| 20260507183036 | 18 | 267 | 1.6 | 8.0 | 0.00 | 0.00 | 0.00 | 43 | 1020.8 |
| 20260507182035 | 19 | 280 | 1.6 | 9.7 | 0.00 | 0.00 | 0.00 | 45 | 1021.2 |
| 20260507181034 | 18 | 244 | 3.2 | 9.7 | 0.00 | 0.00 | 0.00 | 47 | 1021.0 |
| 20260507180033 | 18 | 262 | 4.8 | 14.5 | 0.00 | 0.00 | 0.00 | 47 | 1020.7 |
| 20260507175032 | 18 | 253 | 6.4 | 14.5 | 0.00 | 0.00 | 0.00 | 47 | 1020.9 |
| 20260507174031 | 18 | 15 | 1.6 | 4.8 | 0.00 | 0.00 | 0.00 | 47 | 1020.9 |
| 20260507173030 | 17 | 40 | 1.6 | 6.4 | 0.00 | 0.00 | 0.00 | 48 | 1020.8 |
| 20260507172029 | 17 | 11 | 3.2 | 6.4 | 0.00 | 0.00 | 0.00 | 50 | 1020.8 |
| 20260507171028 | 16 | 25 | 3.2 | 4.8 | 0.00 | 0.00 | 0.00 | 53 | 1021.0 |
| 20260507170027 | 16 | 26 | 3.2 | 4.8 | 0.00 | 0.00 | 0.00 | 56 | 1020.6 |
| 20260507165026 | 16 | 26 | 1.6 | 6.4 | 0.00 | 0.00 | 0.00 | 57 | 1020.4 |
| 20260507164025 | 16 | 5 | 0.0 | 6.4 | 0.00 | 0.00 | 0.00 | 53 | 1020.5 |
| 20260507162952 | 16 | 359 | 1.6 | 6.4 | 0.00 | 0.00 | 0.00 | 55 | 1020.4 |
| 20260507161952 | 15 | 18 | 3.2 | 4.8 | 0.00 | 0.00 | 0.00 | 55 | 1020.4 |
| 20260507160951 | 15 | 24 | 1.6 | 4.8 | 0.00 | 0.00 | 0.00 | 59 | 1020.4 |
| 20260507155949 | 15 | 44 | 1.6 | 6.4 | 0.00 | 0.00 | 0.00 | 60 | 1020.4 |
| 20260507154948 | 15 | 293 | 3.2 | 8.0 | 0.00 | 0.00 | 0.00 | 51 | 1020.3 |
| 20260507153947 | 15 | 288 | 4.8 | 11.3 | 0.00 | 0.00 | 0.00 | 56 | 1020.7 |